RH
77 57 41 29 32 40 42 27 20 15 22 19 18 16 23 38 31 53 70 80 86 90 91 92 95 92 93 92 92 93 91 88 90 91 90 88 88 87 86 85 83 82 81 77 77 78 80 80 88
48 34 29 32 39 48 38 27 21 17 16 16 16 17 44 62 62 74 78 78 79 86 89 90 95 93 93 93 93 93 89 87 90 90 89 88 87 87 86 85 83 81 81 76 69 78 78 85 87
36 30 36 33 47 44 36 20 19 16 14 13 16 17 36 51 66 69 66 75 79 83 86 85 94 96 94 93 92 93 91 90 91 91 88 88 86 86 86 87 86 84 80 75 72 76 83 86 87
34 37 37 41 45 36 27 23 17 16 16 13 14 35 38 47 60 62 66 73 82 85 85 91 93 96 94 93 92 93 93 92 92 91 89 88 86 85 87 88 86 83 81 79 78 83 86 86 85
31 38 45 51 39 29 21 16 15 15 15 14 16 26 55 63 60 64 71 70 91 96 94 93 94 95 96 94 92 93 94 93 90 89 86 86 89 84 86 88 86 83 82 81 82 84 86 86 86
32 38 48 50 35 24 20 16 14 16 17 17 19 44 59 61 64 72 80 85 93 96 96 93 91 93 96 96 96 95 94 89 87 85 84 86 94 94 86 87 86 85 86 85 86 87 87 88 82
40 44 46 40 31 26 20 16 16 16 17 19 19 46 67 66 75 82 84 88 93 96 97 94 94 94 94 96 96 96 93 90 90 92 87 86 93 94 95 84 86 87 86 87 88 88 86 82 80
32 37 58 38 33 29 19 16 16 17 19 22 17 56 69 62 80 83 91 93 93 95 96 99 96 95 97 98 95 94 94 92 92 93 91 90 90 91 89 92 85 89 88 87 88 87 83 81 81
30 42 44 34 28 24 17 16 14 17 16 19 18 33 40 73 79 89 96 95 93 93 96 99 98 94 95 97 95 92 89 90 89 89 89 94 95 96 95 85 88 89 89 87 89 84 82 81 79
34 42 37 25 22 20 17 17 16 16 19 18 21 62 70 74 79 88 96 96 95 94 95 98 98 96 95 95 96 97 94 94 95 96 96 98 96 96 96 85 92 90 89 88 87 82 81 72 67
32 32 27 22 20 19 18 19 15 14 19 16 17 69 75 78 81 79 84 90 92 94 96 97 98 97 97 99 99 99 99 99 99 98 97 97 96 96 97 98 97 95 90 86 83 76 73 68 71
35 25 22 20 18 18 18 16 15 15 14 16 17 57 68 71 76 78 83 90 96 96 95 97 95 97 97 96 96 99 99 99 99 98 95 99 97 98 98 98 98 91 91 95 96 84 77 72 73
32 27 22 20 17 17 16 16 16 16 17 16 14 46 61 61 62 63 70 84 94 96 95 97 97 95 97 94 95 97 99 97 97 97 97 97 96 95 95 98 96 91 92 89 91 83 74 71 72
26 24 23 20 18 17 17 16 18 15 14 14 15 17 46 49 52 61 80 89 90 90 95 96 97 96 97 97 96 97 98 99 97 97 94 94 94 93 94 96 96 92 82 81 78 80 76 72 72
26 30 26 25 22 21 18 18 20 16 17 14 14 14 22 27 41 57 72 83 84 85 90 96 96 96 96 96 96 98 98 98 98 97 95 93 91 94 93 96 96 84 77 75 71 80 75 71 68
35 37 40 28 23 21 19 24 20 17 17 17 16 15 20 27 32 65 70 73 82 86 93 94 91 96 96 96 98 98 98 98 99 98 96 94 92 92 94 95 94 80 73 67 66 75 70 73 76
47 48 41 35 24 23 21 22 18 16 16 17 16 17 20 29 34 52 68 69 80 88 93 96 97 97 98 98 98 98 97 98 98 99 98 96 93 90 94 96 92 84 72 64 68 80 62 68 76
53 51 51 45 30 25 26 24 20 16 17 17 14 17 18 28 32 46 62 63 81 92 93 95 96 98 98 97 99 99 99 99 99 99 99 95 93 93 91 94 92 82 75 65 71 71 74 72 70
43 44 46 45 37 43 36 31 26 21 20 19 17 19 18 25 28 49 59 62 94 96 96 96 97 98 96 97 98 99 99 99 99 98 96 98 97 96 96 96 93 82 63 66 69 66 64 73 75
38 47 52 46 35 36 41 41 34 31 26 18 19 26 22 25 42 55 63 73 91 96 95 96 96 94 92 97 95 96 96 96 96 97 97 97 97 93 94 92 91 90 66 73 66 65 74 72 69
44 48 48 45 40 40 60 55 41 32 26 19 20 20 22 24 41 56 64 73 94 97 96 95 96 94 92 93 92 95 95 97 96 95 98 97 94 94 94 90 91 89 76 74 63 61 60 63 77
53 41 40 38 77 82 49 78 52 41 34 26 20 22 21 23 33 54 62 73 92 94 93 94 96 97 94 90 92 95 93 96 91 90 91 97 97 94 92 92 90 89 90 78 64 59 59 64 66
58 41 43 54 78 82 67 86 62 40 36 27 22 20 19 20 34 54 59 67 80 91 94 95 96 96 96 87 89 89 89 86 87 88 89 90 94 96 97 91 95 96 95 83 71 76 78 74 84
52 56 67 64 82 96 62 72 66 46 34 27 20 21 20 20 34 51 54 62 86 89 94 97 96 95 95 89 89 86 87 86 91 88 90 88 85 91 90 86 89 90 94 92 87 80 82 86 87
75 93 99 99 98 82 48 60 58 36 28 23 21 19 20 34 46 55 64 75 86 93 96 96 95 96 95 89 89 84 83 85 83 84 86 86 84 84 86 81 81 84 84 87 83 85 85 89 90
72 93 99 87 96 78 49 58 46 33 28 23 20 20 19 28 51 58 68 73 78 87 93 92 94 96 95 91 88 84 80 85 85 77 80 83 79 76 75 81 78 82 78 77 81 84 88 91 93
81 98 78 98 95 94 73 57 38 30 30 27 19 20 31 38 56 62 68 71 75 83 88 88 89 90 92 86 87 84 80 82 83 75 73 78 75 71 81 88 80 85 88 88 86 90 92 94 94
67 84 98 99 95 96 71 64 74 62 56 29 29 33 38 58 55 62 66 70 72 77 83 86 83 84 91 82 86 84 81 75 76 76 78 78 74 71 75 87 84 83 85 86 92 85 90 93 92
87 97 96 89 88 96 94 92 78 78 65 55 45 30 37 41 64 61 61 66 71 76 81 86 83 82 85 90 89 84 84 78 77 82 78 75 74 77 76 76 82 83 81 83 85 86 88 88 83
64 92 94 99 92 90 99 85 87 78 66 54 48 35 28 32 40 51 59 62 73 80 82 84 83 83 82 84 89 85 83 81 81 82 80 76 74 74 72 73 78 78 80 78 81 80 76 88 87
Wind_Speed
4 4 2 5 4 5 5 7 5 6 1 3 4 7 8 1 1 4 3 7 12 12 9 11 12 13 13 14 14 14 15 16 17 19 19 19 20 20 19 18 19 20 20 22 22 22 23 26 25
4 3 5 2 5 2 7 5 8 7 7 6 5 6 4 2 2 7 7 11 13 12 9 9 14 14 15 15 15 15 16 16 16 16 17 19 20 21 21 19 19 20 21 22 21 22 23 24 24
2 3 4 4 4 7 6 1 3 5 8 6 4 2 8 8 3 11 6 15 11 11 9 10 14 15 16 16 16 16 16 17 17 16 17 17 18 19 21 18 17 20 22 22 22 24 24 23 22
3 4 4 2 11 8 6 6 5 5 2 3 5 6 4 1 12 7 10 13 7 9 9 11 13 14 16 16 17 17 17 17 16 16 16 15 13 16 17 19 19 20 21 22 23 24 22 21 22
3 3 1 3 10 8 5 7 10 10 5 6 6 4 5 3 9 11 10 10 10 6 6 8 9 10 13 15 15 16 16 15 18 21 19 18 8 12 11 18 19 19 21 22 23 21 20 20 18
2 3 2 5 12 7 7 11 13 6 6 5 5 6 4 6 12 8 8 7 8 8 6 6 7 8 10 12 13 13 17 18 19 17 15 13 15 9 14 13 17 19 19 21 19 17 18 18 18
6 5 5 6 8 10 8 9 6 7 5 4 5 5 3 5 6 9 8 8 8 6 7 6 5 5 6 8 10 13 17 16 13 12 14 14 19 18 9 14 17 20 22 19 15 14 15 16 14
5 4 3 7 4 13 5 7 4 4 3 4 6 7 6 7 8 10 8 7 8 6 6 6 7 6 5 5 14 14 15 16 10 9 13 15 22 20 3 22 21 20 20 19 14 13 14 13 14
4 3 6 11 8 9 6 8 7 2 5 4 6 10 7 19 11 8 6 4 4 4 4 6 6 7 6 5 7 10 12 11 10 12 13 10 7 10 2 25 23 21 19 18 16 15 13 14 21
6 6 11 6 9 9 13 5 6 5 3 4 2 5 15 19 15 13 11 8 6 5 5 5 7 8 7 5 4 5 5 6 5 6 7 6 6 7 11 17 18 20 19 19 15 15 12 13 10
6 12 6 12 10 8 12 13 5 6 4 8 9 10 13 16 13 12 11 12 12 7 5 6 5 7 8 6 4 2 3 4 5 7 8 10 7 8 7 6 6 8 12 7 10 10 4 9 6
7 6 7 12 16 9 12 13 7 7 10 6 5 16 15 14 14 14 11 11 12 9 8 7 6 7 7 5 4 4 3 5 5 5 8 2 8 8 8 7 9 8 6 7 4 5 5 8 6
8 10 14 15 16 14 15 19 19 10 12 9 6 12 16 16 16 12 10 10 12 11 9 9 7 6 5 7 4 4 4 6 7 7 7 8 9 11 10 7 7 8 8 8 5 5 5 6 6
5 12 17 14 16 12 11 18 6 9 9 9 9 11 16 16 17 7 10 12 14 12 12 10 9 7 7 4 4 4 4 4 7 6 9 10 9 9 10 9 7 7 10 9 7 6 5 5 5
10 13 14 12 7 7 6 21 8 12 9 10 11 10 10 13 11 19 18 18 17 13 13 13 11 8 7 7 5 3 3 4 6 7 10 13 11 12 11 9 7 7 7 10 9 4 4 5 5
4 4 6 5 8 6 7 25 8 10 7 11 12 10 9 11 12 11 17 17 16 14 15 11 9 9 6 6 5 4 4 2 3 6 8 12 13 13 10 9 9 8 8 9 9 7 6 5 6
3 9 12 7 3 6 8 19 7 8 9 12 13 10 10 10 7 14 18 18 18 16 16 13 11 10 7 6 5 4 4 2 2 2 7 10 11 13 11 9 7 10 8 8 8 5 9 7 7
6 6 6 3 3 7 11 14 9 16 10 14 19 11 13 14 15 15 19 16 15 15 15 14 11 11 9 6 6 4 3 2 2 3 3 13 13 15 12 11 13 9 9 9 7 9 4 5 8
4 7 9 6 5 7 13 13 15 16 17 16 18 12 16 16 14 14 17 15 14 13 14 15 14 13 9 6 4 3 3 2 1 2 5 6 7 10 12 9 10 13 11 11 10 9 12 4 5
6 3 7 5 5 12 17 26 19 24 21 17 17 12 15 11 9 14 16 15 17 17 15 14 14 16 10 6 4 3 3 2 1 1 4 7 7 14 12 14 13 10 11 10 11 10 5 3 6
6 6 3 5 14 11 5 24 21 24 13 13 10 11 12 13 14 16 17 18 15 17 17 15 16 16 12 10 7 5 4 3 1 1 1 5 11 11 13 15 13 11 9 10 13 12 11 9 0
12 6 5 7 6 5 2 13 18 17 20 19 11 10 11 10 12 19 19 17 18 16 15 16 15 14 12 14 10 12 5 5 2 2 2 3 5 9 12 13 15 11 3 7 9 10 10 9 10
6 4 7 1 8 9 14 8 15 12 18 19 15 10 8 10 17 21 23 22 18 18 16 15 15 13 14 13 12 10 8 5 4 3 6 4 4 4 7 12 10 8 3 4 7 5 9 8 5
2 4 6 6 8 12 12 12 11 13 16 17 16 9 10 8 18 23 22 17 15 13 14 14 15 13 14 14 13 14 12 9 8 6 6 5 4 4 6 10 11 9 5 4 4 3 7 5 5
5 5 4 6 8 11 5 14 17 12 16 15 17 14 14 11 15 18 20 18 17 17 16 14 15 14 15 15 14 14 13 11 13 11 8 8 6 4 7 8 8 9 9 8 7 7 6 6 5
6 6 3 7 4 3 10 8 6 22 21 22 22 15 17 16 16 21 22 20 20 19 18 17 17 15 15 16 15 13 13 8 8 10 9 8 9 9 8 7 7 6 9 9 8 6 5 6 6
5 5 5 5 2 1 5 5 5 7 13 13 19 10 6 14 17 19 18 19 19 18 19 19 17 15 16 17 14 14 12 11 11 12 11 9 9 7 9 8 9 7 8 8 8 5 5 5 6
8 2 2 3 3 3 4 3 3 10 9 13 17 10 2 6 15 16 17 18 17 16 15 15 16 17 16 17 13 12 13 13 12 11 11 11 11 12 11 10 11 11 10 10 10 9 7 9 7
3 3 5 4 3 1 3 2 6 11 12 14 16 18 7 6 7 13 14 13 14 14 14 14 13 15 15 15 14 13 13 14 12 10 11 12 11 12 12 13 13 12 13 12 11 11 10 12 12
8 4 4 4 3 3 2 4 6 12 16 16 16 20 11 8 6 10 12 13 14 14 14 15 14 14 15 15 15 14 13 14 14 13 13 12 13 12 14 13 14 14 13 13 13 14 13 13 14
Wind_Direction
139 104 66 43 45 64 261 258 275 304 165 240 160 110 124 91 207 206 206 139 127 143 155 158 157 154 147 144 141 136 132 131 134 136 137 136 136 135 135 136 136 137 132 129 126 127 127 125 117
137 134 46 76 95 75 267 242 224 220 183 173 119 121 83 84 122 131 132 157 149 152 157 160 160 163 158 156 152 148 145 144 143 144 143 143 141 141 138 139 139 138 135 135 138 131 130 124 118
100 78 86 131 160 191 221 241 227 256 189 164 134 83 135 164 138 154 161 158 148 155 161 167 166 166 167 166 164 159 155 154 151 149 147 146 145 145 142 140 140 139 138 141 141 136 135 128 122
125 19 14 133 246 247 222 300 288 260 256 155 141 101 66 286 156 162 138 147 131 159 163 170 169 171 175 176 171 166 162 158 151 152 152 147 146 153 149 140 143 143 141 142 139 138 138 129 125
34 71 114 248 257 256 247 249 261 236 183 197 154 158 107 23 114 120 133 135 129 128 143 159 167 173 178 179 178 170 161 143 127 111 107 89 48 166 158 147 148 150 146 140 138 143 134 131 120
51 103 99 237 258 277 279 272 253 215 194 197 133 107 140 142 120 128 113 119 121 131 136 144 162 179 188 184 179 175 148 148 142 132 124 107 85 150 206 160 148 147 139 134 143 141 141 130 124
145 106 215 230 263 294 287 260 233 202 176 217 158 89 124 181 140 118 112 106 100 125 143 140 132 159 182 176 156 147 149 145 158 166 154 160 145 128 272 198 157 149 135 135 136 140 136 126 124
134 108 232 244 225 275 261 317 151 159 260 147 139 159 189 196 147 121 104 112 113 112 139 153 146 143 133 126 140 149 152 164 183 194 192 173 168 150 166 221 167 144 137 140 133 136 137 124 113
140 137 208 230 194 245 311 345 299 275 146 234 203 155 194 132 138 113 114 98 121 127 129 144 152 147 138 134 154 156 162 158 169 157 159 147 179 127 251 201 161 141 141 138 135 143 136 114 125
162 191 224 219 231 273 297 308 283 311 245 248 220 26 129 140 157 158 163 168 173 176 178 166 156 150 149 153 162 167 158 158 164 149 169 168 174 159 201 189 145 142 144 140 141 146 141 116 125
218 230 234 262 266 267 281 296 275 272 262 240 231 162 159 157 170 177 175 180 177 171 178 185 161 150 156 163 171 175 147 150 161 170 186 180 188 164 167 141 130 125 126 138 136 148 127 121 126
253 238 224 256 259 260 265 274 262 219 240 216 227 171 163 177 185 192 182 174 159 169 178 171 171 160 164 160 172 170 153 166 166 181 140 163 151 142 140 154 152 145 146 129 137 144 142 127 129
233 245 248 254 258 254 259 262 258 232 240 245 223 171 184 190 201 194 184 163 150 170 179 174 171 161 164 163 160 156 156 171 167 171 150 154 155 164 155 156 157 152 149 148 142 147 148 137 126
260 239 249 251 258 257 255 264 238 250 236 244 232 189 195 196 200 153 159 163 164 171 180 170 175 166 163 158 166 161 155 153 163 179 174 168 161 162 165 163 156 166 157 152 155 164 153 142 125
246 258 268 259 251 256 252 276 237 240 248 250 246 244 200 201 167 181 173 172 169 179 173 174 165 158 162 159 161 153 168 155 165 174 175 168 168 167 167 159 157 157 153 154 147 144 127 122 115
286 268 260 249 237 235 166 268 260 265 237 246 249 240 215 213 183 174 168 169 172 166 172 169 157 164 165 153 136 139 125 135 172 176 182 176 169 168 165 166 161 156 153 163 163 148 157 138 131
249 252 263 281 240 253 182 270 260 252 238 246 248 232 219 210 202 176 174 174 169 166 161 163 154 153 153 146 129 123 133 171 212 205 186 182 174 170 162 164 169 156 150 169 162 150 166 152 139
217 260 259 257 308 317 298 277 294 283 260 250 251 234 218 202 206 178 169 175 159 159 161 156 152 141 142 139 111 103 122 145 177 209 239 190 179 178 177 174 169 166 149 169 168 155 158 143 147
285 275 278 278 301 328 310 295 291 296 295 266 244 239 219 204 204 167 160 158 146 152 155 159 150 151 149 149 134 126 127 150 184 197 221 202 188 172 168 160 168 168 168 174 164 159 160 152 137
247 270 281 287 318 350 327 296 301 294 282 271 227 212 202 205 147 164 161 157 162 158 160 159 155 160 161 156 132 124 129 134 127 191 194 203 179 186 180 171 173 186 173 161 158 164 133 131 166
216 218 240 293 330 317 332 292 290 281 293 275 238 206 218 203 170 163 166 165 154 163 165 162 161 162 159 143 129 112 94 99 120 185 158 180 177 169 171 165 159 163 177 164 169 159 161 167 119
267 178 242 263 353 256 69 282 282 280 286 284 256 207 217 197 186 169 167 163 169 170 162 158 159 156 157 149 149 154 162 172 159 147 81 98 111 160 159 156 147 139 132 153 173 155 160 161 176
271 193 230 294 262 272 244 255 271 270 275 276 270 265 232 202 179 176 175 174 168 160 163 158 157 157 156 155 157 160 163 181 138 133 129 106 107 116 112 132 118 134 173 187 151 146 149 171 143
321 242 309 249 246 247 218 212 247 258 249 270 274 261 249 215 193 179 176 157 151 153 154 157 160 161 160 156 162 165 171 160 153 155 154 146 139 122 143 141 166 166 172 210 139 153 150 147 136
163 165 177 215 206 236 188 206 243 260 245 261 270 263 253 183 183 164 157 158 156 163 162 160 165 168 168 163 169 171 176 170 170 168 168 165 166 168 175 168 162 179 187 188 195 191 178 164 165
181 175 229 217 219 206 203 241 244 226 233 259 267 256 278 187 171 170 166 163 162 165 166 166 170 168 171 168 172 175 172 172 177 180 173 182 184 182 179 176 177 170 190 188 197 198 182 175 189
165 206 257 305 297 107 255 285 277 34 5 313 262 256 242 171 159 167 162 164 163 168 173 170 172 171 174 178 172 178 178 176 184 187 185 184 185 185 181 179 185 180 182 184 185 188 192 177 197
229 25 191 201 233 225 242 241 54 360 348 8 19 330 174 141 156 164 166 167 175 170 168 169 175 175 170 181 178 180 185 189 186 184 186 187 189 191 184 181 191 192 193 193 186 194 193 188 200
194 220 223 271 253 249 310 124 38 330 336 353 356 347 28 105 154 168 174 170 163 161 168 168 176 175 175 178 181 180 186 191 192 189 191 190 186 187 185 189 192 197 200 196 198 199 201 206 211
180 222 217 261 198 186 77 276 18 343 338 358 355 360 351 40 68 170 164 156 159 161 169 176 178 183 182 180 181 186 185 191 197 200 197 195 197 194 197 193 196 202 204 206 209 210 209 206 209